ラ・サグラ彗星

P/2010 R2 ( La Sagra )

English version
Home page
Updated on November 20, 2011

---------------------------------------------------------------------

・ プロフィール

発見日 2010年9月14日
発見光度 18.4等
発見者 J. Nomen (La Sagra Observatory)

・ 写真集

・ 軌道要素

Epoch 2010 June 13.0 TT = JDT 2455360.5
T 2010 June 25.81787 TT                                 MPC
q   2.6226445            (2000.0)            P               Q
n   0.18073864     Peri.   59.54257     +0.80923120     +0.46049557
a   3.0981472      Node   270.75906     -0.58037439     +0.72297744
e   0.1534797      Incl.   21.39806     +0.09116160     +0.51502180
P   5.45
From 353 observations 2010 Aug. 13-2011 Aug. 29, mean residual 0".4.

・ 光度変化

        H = 17.5  G = 0.15                      [   ,  0]  (              〜2010年 6月25日)
        m1 = -17 + 5 logΔ + 80 log r(t - 100)  [  0,300]  (2010年 6月25日〜2011年 4月21日)
        H = 17.5  G = 0.15                      [300,   ]  (2011年 4月21日〜              )

---------------------------------------------------------------------

軌道要素はM.P.E.C. 2011-W16に掲載されたものです。
光度グラフはComet for Windowsで作成したものです。

---------------------------------------------------------------------

Copyright(C) Seiichi Yoshida (comet@aerith.net). All rights reserved.